Location: Asheville, NC
(35.6000°N, 82.5500°W)
Time: 13:05:53
(UTC-04:00)

Vanguard 1 Rocket - Pass Details

Date: 10 December 2017
Orbit: 653 x 4224 km, 34.3° (Epoch: 18 June)

Event Time Altitude Azimuth Distance (km) Brightness Sun altitude
Rises 20:53:23 0° 272° (W) 5,667 12.3 -43.1°
Reaches altitude 10° 20:56:22 10° 272° (W) 5,021 11.8 -43.7°
Maximum altitude 21:12:57 85° 187° (S) 3,586 10.0 -47.1°
Enters shadow 21:14:47 80° 125° (SE) 3,713 10.0 -47.4°
